Location: Asheville, NC
(35.6000°N, 82.5500°W)
Time: 05:31:01
(UTC-04:00)

N. Korean satellite - Visible Passes

Search period start: 17 October 2017 00:00
Search period end: 27 October 2017 00:00
Orbit: 459 x 517 km, 97.2° (Epoch: 16 October)

Date Brightness Start Highest point End Pass type
(mag) Time Alt. Az. Time Alt. Az. Time Alt. Az.
17 Oct 7.0 19:47:03 10° S 19:50:35 65° W 19:54:04 10° NNW visible
18 Oct 6.6 19:23:49 10° SSE 19:27:16 54° ENE 19:30:43 10° N visible
19 Oct 9.9 20:35:37 10° SW 20:37:34 14° W 20:39:29 10° WNW visible
20 Oct 8.7 20:11:02 10° SSW 20:14:07 28° W 20:17:11 10° NW visible
21 Oct 7.0 19:47:16 10° S 19:50:44 64° W 19:54:12 10° NNW visible
22 Oct 6.5 19:24:00 10° SSE 19:27:26 55° ENE 19:30:50 10° N visible
23 Oct 9.9 20:35:50 10° SW 20:37:41 14° W 20:39:32 10° WNW visible
24 Oct 8.7 20:11:12 10° SSW 20:14:14 28° W 20:17:15 10° NW visible
25 Oct 7.0 19:47:23 10° S 19:50:50 62° W 19:54:16 10° NNW visible
26 Oct 10.3 07:19:05 10° ENE 07:20:35 12° E 07:22:05 10° ESE visible
26 Oct 6.5 19:24:06 10° SSE 19:27:29 56° ENE 19:30:53 10° N visible
